TimeMST,TemperatureF,Dew PointF,Humidity,Sea Level PressureIn,VisibilityMPH,Wind Direction,Wind SpeedMPH,Gust SpeedMPH,PrecipitationIn,Events,Conditions,WindDirDegrees,DateUTC
12:53 AM,53.1,25.0,34,29.80,10.0,West,10.4,16.1,N/A,,Clear,260,2013-02-07 07:53:00
1:53 AM,55.0,26.1,33,29.78,10.0,SSW,13.8,-,N/A,,Clear,200,2013-02-07 08:53:00
2:53 AM,54.0,26.1,34,29.81,10.0,West,12.7,-,N/A,,Clear,270,2013-02-07 09:53:00
3:53 AM,54.0,26.1,34,29.83,10.0,WNW,16.1,-,N/A,,Clear,300,2013-02-07 10:53:00
4:53 AM,52.0,26.1,37,29.86,10.0,WNW,13.8,-,N/A,,Clear,300,2013-02-07 11:53:00
5:53 AM,48.9,26.1,41,29.91,10.0,West,8.1,-,N/A,,Overcast,280,2013-02-07 12:53:00
6:53 AM,46.9,26.1,44,29.97,10.0,NNW,9.2,-,N/A,,Overcast,330,2013-02-07 13:53:00
7:53 AM,52.0,24.1,34,29.99,10.0,NNW,13.8,-,N/A,,Clear,340,2013-02-07 14:53:00
8:53 AM,55.0,23.0,29,30.02,10.0,North,12.7,-,N/A,,Clear,360,2013-02-07 15:53:00
9:53 AM,57.9,21.0,24,30.04,10.0,North,13.8,-,N/A,,Clear,10,2013-02-07 16:53:00
10:53 AM,60.1,21.9,23,30.04,10.0,NNE,10.4,-,N/A,,Clear,30,2013-02-07 17:53:00
11:53 AM,60.1,21.9,23,30.04,10.0,NNE,4.6,-,N/A,,Clear,30,2013-02-07 18:53:00
12:53 PM,62.1,21.0,21,30.01,10.0,NNW,8.1,-,N/A,,Clear,330,2013-02-07 19:53:00
1:53 PM,64.0,21.0,19,29.98,10.0,NNE,9.2,-,N/A,,Clear,20,2013-02-07 20:53:00
2:53 PM,64.9,21.0,19,29.97,10.0,North,6.9,-,N/A,,Clear,350,2013-02-07 21:53:00
3:53 PM,64.9,19.9,18,29.97,10.0,Calm,Calm,-,N/A,,Clear,0,2013-02-07 22:53:00
4:53 PM,64.0,19.9,18,29.99,10.0,Calm,Calm,-,N/A,,Clear,0,2013-02-07 23:53:00
5:53 PM,57.9,19.9,23,30.02,10.0,ENE,5.8,-,N/A,,Clear,70,2013-02-08 00:53:00
6:53 PM,55.9,21.0,26,30.04,10.0,ENE,5.8,-,N/A,,Clear,70,2013-02-08 01:53:00
7:53 PM,52.0,21.9,31,30.08,10.0,NE,4.6,-,N/A,,Clear,50,2013-02-08 02:53:00
8:53 PM,46.9,21.9,37,30.10,10.0,Calm,Calm,-,N/A,,Clear,0,2013-02-08 03:53:00
9:53 PM,48.0,21.9,36,30.11,10.0,Calm,Calm,-,N/A,,Clear,0,2013-02-08 04:53:00
10:53 PM,42.1,21.9,45,30.13,10.0,Calm,Calm,-,N/A,,Clear,0,2013-02-08 05:53:00
11:53 PM,46.0,21.0,37,30.13,10.0,Calm,Calm,-,N/A,,Clear,0,2013-02-08 06:53:00